CSN671 UHPL-UKLH

Flight info

Callsign CSN671
Flight time N/A
Altitude 22000
Route TEKRU
Aircraft C208/L-SDFGR/C

Departure

Time 2026-05-07 05:59
Airport Palana Airport (UHPL)

Arrival

Time N/A
Airport Khmelnytskyi Airport (UKLH)
Time Latitude Longitude Altitude Speed Heading
2026-05-07 05:51 59.08305 159.89388 102 ft 0 kts
2026-05-07 05:54 59.08304 159.89388 101 ft 1 kts 11°
2026-05-07 05:55 59.08282 159.89341 90 ft 20 kts 276°
2026-05-07 05:56 59.08306 159.89214 91 ft 16 kts 71°
2026-05-07 05:56 59.08206 159.89200 72 ft 18 kts 266°
2026-05-07 05:56 59.08261 159.88799 69 ft 41 kts 286°
2026-05-07 05:57 59.08354 159.88232 63 ft 40 kts 288°
2026-05-07 05:57 59.08389 159.87986 59 ft 2 kts 206°
2026-05-07 05:57 59.08381 159.88006 57 ft 1 kts 105°
2026-05-07 05:57 59.08375 159.88058 61 ft 7 kts 102°
2026-05-07 05:58 59.08353 159.88224 63 ft 25 kts 105°
2026-05-07 05:58 59.08260 159.88833 64 ft 69 kts 106°
2026-05-07 05:58 59.08065 159.89769 263 ft 75 kts 109°
2026-05-07 05:58 59.07880 159.90731 511 ft 77 kts 107°
2026-05-07 05:59 59.07521 159.91553 757 ft 83 kts 129°
2026-05-07 05:59 59.07120 159.92379 1039 ft 85 kts 127°
2026-05-07 05:59 59.06700 159.93237 1334 ft 89 kts 128°
2026-05-07 05:59 59.06127 159.93730 1576 ft 99 kts 174°
2026-05-07 06:00 59.05434 159.93746 1846 ft 97 kts 161°
2026-05-07 06:00 59.04745 159.93930 2116 ft 101 kts 163°
2026-05-07 06:00 59.04052 159.94104 2383 ft 100 kts 163°
2026-05-07 06:00 59.03366 159.94270 2643 ft 98 kts 163°
2026-05-07 06:01 59.02717 159.94503 2894 ft 93 kts 157°
2026-05-07 06:01 59.02071 159.94745 3149 ft 95 kts 160°
2026-05-07 06:01 59.01413 159.94976 3409 ft 97 kts 161°
2026-05-07 06:01 59.00744 159.95199 3668 ft 96 kts 160°
2026-05-07 06:02 59.00100 159.95415 3925 ft 94 kts 160°
2026-05-07 06:02 58.99462 159.95627 4194 ft 92 kts 160°
2026-05-07 06:02 58.98834 159.95838 4450 ft 91 kts 160°
2026-05-07 06:02 58.98215 159.96042 4707 ft 89 kts 159°
2026-05-07 06:03 58.97611 159.96242 4962 ft 86 kts 159°
2026-05-07 06:03 58.97033 159.96434 5212 ft 82 kts 158°
2026-05-07 06:03 58.96481 159.96618 5472 ft 79 kts 156°
2026-05-07 06:03 58.95946 159.96790 5721 ft 77 kts 156°
2026-05-07 06:04 58.95419 159.96967 5932 ft 78 kts 156°
2026-05-07 06:04 58.94878 159.97141 6110 ft 80 kts 157°
2026-05-07 06:04 58.94318 159.97323 6292 ft 83 kts 158°
2026-05-07 06:04 58.93734 159.97512 6473 ft 85 kts 158°
2026-05-07 06:05 58.93143 159.97708 6662 ft 87 kts 158°
2026-05-07 06:05 58.92524 159.97901 6846 ft 91 kts 160°
2026-05-07 06:05 58.91886 159.98116 6997 ft 98 kts 160°
2026-05-07 06:05 58.91168 159.98351 7004 ft 114 kts 162°
2026-05-07 06:06 58.90343 159.98620 7001 ft 124 kts 162°
2026-05-07 06:06 58.89466 159.98898 7004 ft 131 kts 163°
2026-05-07 06:06 58.88556 159.99191 7002 ft 134 kts 162°
2026-05-07 06:06 58.87639 159.99489 6995 ft 137 kts 163°
2026-05-07 06:07 58.86693 159.99802 7000 ft 139 kts 163°
2026-05-07 06:07 58.85739 160.00109 6999 ft 139 kts 163°
2026-05-07 06:07 58.84782 160.00419 6999 ft 138 kts 163°
2026-05-07 06:07 58.83832 160.00728 6996 ft 140 kts 163°
2026-05-07 06:08 58.82871 160.01041 6997 ft 140 kts 163°
2026-05-07 06:08 58.81912 160.01354 6996 ft 140 kts 163°
2026-05-07 06:08 58.80948 160.01667 6995 ft 140 kts 163°
2026-05-07 06:08 58.79993 160.01978 6994 ft 140 kts 163°
2026-05-07 06:09 58.79028 160.02290 6991 ft 140 kts 163°
2026-05-07 06:09 58.78068 160.02602 6982 ft 139 kts 163°
2026-05-07 06:09 58.77111 160.02908 6991 ft 140 kts 163°
2026-05-07 06:09 58.76166 160.03215 6991 ft 139 kts 163°
2026-05-07 06:10 58.75208 160.03523 6981 ft 139 kts 162°
2026-05-07 06:10 58.74260 160.03836 6970 ft 140 kts 163°
2026-05-07 06:10 58.73235 160.04166 6977 ft 151 kts 163°
2026-05-07 06:10 58.72182 160.04502 6986 ft 158 kts 164°
2026-05-07 06:11 58.71078 160.04851 6983 ft 162 kts 164°
2026-05-07 06:11 58.69958 160.05211 6989 ft 163 kts 164°
2026-05-07 06:11 58.68870 160.05557 7208 ft 154 kts 164°
2026-05-07 06:11 58.67837 160.05895 7457 ft 147 kts 164°
2026-05-07 06:12 58.66845 160.06218 7710 ft 142 kts 164°
2026-05-07 06:12 58.65887 160.06529 7955 ft 140 kts 164°
2026-05-07 06:12 58.64939 160.06836 8211 ft 137 kts 164°
2026-05-07 06:12 58.63990 160.07141 8479 ft 136 kts 165°
2026-05-07 06:13 58.63062 160.07439 8735 ft 134 kts 165°
2026-05-07 06:13 58.62163 160.07726 8997 ft 132 kts 165°
2026-05-07 06:13 58.61252 160.08021 9267 ft 131 kts 165°
2026-05-07 06:13 58.60353 160.08312 9534 ft 131 kts 165°
2026-05-07 06:14 58.59457 160.08601 9777 ft 130 kts 165°
2026-05-07 06:14 58.58568 160.08886 10017 ft 128 kts 164°
2026-05-07 06:14 58.57703 160.09164 10266 ft 127 kts 164°
2026-05-07 06:14 58.56830 160.09444 10516 ft 127 kts 164°
2026-05-07 06:15 58.55962 160.09721 10762 ft 125 kts 164°
2026-05-07 06:15 58.55105 160.09998 10973 ft 128 kts 163°
2026-05-07 06:15 58.54160 160.10303 10990 ft 145 kts 165°
2026-05-07 06:15 58.53122 160.10629 10991 ft 157 kts 165°
2026-05-07 06:16 58.52019 160.10980 10987 ft 165 kts 166°
2026-05-07 06:16 58.50866 160.11345 10987 ft 170 kts 166°
2026-05-07 06:16 58.49683 160.11719 10986 ft 173 kts 166°
2026-05-07 06:16 58.48495 160.12095 10986 ft 175 kts 166°
2026-05-07 06:17 58.47285 160.12481 10985 ft 177 kts 166°
2026-05-07 06:17 58.46065 160.12870 10987 ft 178 kts 166°
2026-05-07 06:17 58.44839 160.13260 10989 ft 178 kts 166°
2026-05-07 06:17 58.43622 160.13647 10980 ft 179 kts 166°
2026-05-07 06:18 58.42393 160.14037 10981 ft 179 kts 166°
2026-05-07 06:18 58.41577 160.14296 10984 ft 179 kts 166°
2026-05-07 06:18 58.39930 160.14819 10983 ft 179 kts 166°
2026-05-07 06:18 58.39116 160.15078 10984 ft 179 kts 166°
2026-05-07 06:19 58.37486 160.15593 10983 ft 179 kts 166°
2026-05-07 06:19 58.36250 160.15985 10981 ft 179 kts 166°
2026-05-07 06:19 58.35016 160.16376 10981 ft 179 kts 166°
2026-05-07 06:19 58.34198 160.16633 10980 ft 179 kts 166°
2026-05-07 06:20 58.32560 160.17151 10981 ft 179 kts 166°
2026-05-07 06:20 58.31327 160.17540 10983 ft 180 kts 166°
2026-05-07 06:20 58.30506 160.17798 10981 ft 180 kts 166°
2026-05-07 06:20 58.29270 160.18188 10981 ft 180 kts 166°
2026-05-07 06:21 58.28035 160.18576 10980 ft 180 kts 168°
2026-05-07 06:21 58.26773 160.18688 10978 ft 182 kts 175°
2026-05-07 06:21 58.25507 160.18698 10978 ft 182 kts 175°
2026-05-07 06:21 58.24255 160.18709 10980 ft 182 kts 175°
2026-05-07 06:22 58.22984 160.18722 10976 ft 182 kts 175°
2026-05-07 06:22 58.20451 160.18748 10981 ft 182 kts 175°
2026-05-07 06:22 58.19202 160.18762 10979 ft 181 kts 175°
2026-05-07 06:23 58.17940 160.18777 10981 ft 182 kts 175°
2026-05-07 06:23 58.16670 160.18791 10978 ft 182 kts 175°
2026-05-07 06:23 58.15407 160.18805 10977 ft 181 kts 175°
2026-05-07 06:23 58.14138 160.18821 10979 ft 182 kts 175°
2026-05-07 06:24 58.12884 160.18840 10976 ft 182 kts 175°
2026-05-07 06:24 58.11600 160.18859 10979 ft 182 kts 175°
2026-05-07 06:24 58.10356 160.18875 10976 ft 182 kts 175°
2026-05-07 06:24 58.09085 160.18893 10978 ft 182 kts 175°
2026-05-07 06:25 58.07813 160.18914 10996 ft 181 kts 175°
2026-05-07 06:25 58.06542 160.18933 10992 ft 182 kts 175°
2026-05-07 06:25 58.05269 160.18949 10992 ft 183 kts 175°
2026-05-07 06:25 58.03992 160.18967 10989 ft 183 kts 175°
2026-05-07 06:26 58.02734 160.18983 10991 ft 183 kts 175°
2026-05-07 06:26 58.01461 160.18996 10994 ft 182 kts 175°
2026-05-07 06:26 58.00183 160.19012 10991 ft 182 kts 175°
2026-05-07 06:26 57.98905 160.19027 10990 ft 182 kts 175°
2026-05-07 06:27 57.97632 160.19044 10993 ft 183 kts 175°
2026-05-07 06:27 57.96379 160.19058 10988 ft 183 kts 175°
2026-05-07 06:27 57.95099 160.19072 10988 ft 183 kts 175°
2026-05-07 06:27 57.93824 160.19042 10985 ft 184 kts 179°
2026-05-07 06:28 57.92547 160.18828 10989 ft 184 kts 181°
2026-05-07 06:28 57.91265 160.18592 10988 ft 184 kts 181°
2026-05-07 06:28 57.89990 160.18358 10992 ft 184 kts 181°
2026-05-07 06:28 57.88718 160.18128 10990 ft 184 kts 181°
2026-05-07 06:29 57.87436 160.17897 10991 ft 184 kts 181°
2026-05-07 06:29 57.86159 160.17667 10993 ft 185 kts 181°
2026-05-07 06:29 57.84861 160.17439 10991 ft 184 kts 181°
2026-05-07 06:29 57.83583 160.17215 10988 ft 184 kts 181°
2026-05-07 06:30 57.82301 160.16991 10989 ft 184 kts 181°
2026-05-07 06:30 57.81017 160.16772 10988 ft 184 kts 181°
2026-05-07 06:30 57.79739 160.16556 10993 ft 184 kts 181°
2026-05-07 06:30 57.78459 160.16342 10990 ft 184 kts 181°
2026-05-07 06:31 57.77195 160.16133 10990 ft 184 kts 181°
2026-05-07 06:31 57.75925 160.15760 10991 ft 186 kts 192°
2026-05-07 06:31 57.74694 160.14945 10989 ft 187 kts 197°
2026-05-07 06:31 57.73479 160.14089 10997 ft 187 kts 197°
2026-05-07 06:32 57.72266 160.13236 11000 ft 187 kts 197°
2026-05-07 06:32 57.71044 160.12377 10998 ft 187 kts 197°
2026-05-07 06:32 57.69819 160.11521 10992 ft 187 kts 197°
2026-05-07 06:32 57.68597 160.10666 10993 ft 187 kts 197°
2026-05-07 06:33 57.67388 160.09821 10992 ft 187 kts 197°
2026-05-07 06:33 57.66158 160.08966 10992 ft 187 kts 197°
2026-05-07 06:33 57.64936 160.08117 10992 ft 188 kts 197°
2026-05-07 06:33 57.63713 160.07264 10997 ft 187 kts 197°
2026-05-07 06:34 57.62490 160.06413 10992 ft 187 kts 198°
2026-05-07 06:34 57.61270 160.05563 10990 ft 187 kts 198°
2026-05-07 06:34 57.60043 160.04714 10992 ft 188 kts 197°
2026-05-07 06:34 57.58816 160.03863 10988 ft 188 kts 198°
2026-05-07 06:35 57.57590 160.03011 10989 ft 188 kts 198°
2026-05-07 06:35 57.56374 160.02171 10989 ft 188 kts 197°
2026-05-07 06:35 57.55144 160.01325 10987 ft 188 kts 197°
2026-05-07 06:35 57.53912 160.00475 10994 ft 188 kts 198°
2026-05-07 06:36 57.52677 159.99630 10988 ft 188 kts 197°
2026-05-07 06:36 57.51460 159.98795 10994 ft 189 kts 198°
2026-05-07 06:36 57.50228 159.97947 10989 ft 188 kts 197°
2026-05-07 06:36 57.49000 159.97109 10986 ft 188 kts 198°
2026-05-07 06:37 57.47762 159.96271 10986 ft 188 kts 198°
2026-05-07 06:37 57.46529 159.95435 10982 ft 188 kts 198°
2026-05-07 06:37 57.45294 159.94603 10983 ft 188 kts 198°
2026-05-07 06:37 57.44062 159.93775 10984 ft 188 kts 197°
2026-05-07 06:38 57.42829 159.92946 10985 ft 188 kts 197°
2026-05-07 06:38 57.41595 159.92121 10988 ft 188 kts 198°
2026-05-07 06:38 57.40355 159.91297 10980 ft 189 kts 197°
2026-05-07 06:38 57.39119 159.90479 10987 ft 189 kts 197°
2026-05-07 06:39 57.37881 159.89663 10991 ft 189 kts 198°
2026-05-07 06:39 57.36654 159.88852 10980 ft 189 kts 198°
2026-05-07 06:39 57.35413 159.88032 10982 ft 188 kts 197°
2026-05-07 06:39 57.34171 159.87217 10981 ft 188 kts 197°
2026-05-07 06:40 57.32933 159.86406 10979 ft 189 kts 197°
2026-05-07 06:40 57.31710 159.85606 10982 ft 188 kts 197°
2026-05-07 06:40 57.30469 159.84795 10981 ft 188 kts 198°
2026-05-07 06:40 57.29235 159.83992 10985 ft 188 kts 197°
2026-05-07 06:41 57.27998 159.83191 10988 ft 188 kts 197°
2026-05-07 06:41 57.26759 159.82390 10986 ft 188 kts 197°
2026-05-07 06:41 57.25532 159.81598 10981 ft 188 kts 197°
2026-05-07 06:41 57.24295 159.80806 10979 ft 188 kts 197°
2026-05-07 06:42 57.23053 159.80009 10983 ft 188 kts 197°
2026-05-07 06:42 57.21790 159.79327 10982 ft 188 kts 190°
2026-05-07 06:42 57.20513 159.78845 10985 ft 188 kts 188°
2026-05-07 06:42 57.19219 159.78711 10985 ft 186 kts 175°
2026-05-07 06:43 57.17936 159.78849 10991 ft 186 kts 174°
2026-05-07 06:43 57.16642 159.78987 10984 ft 186 kts 174°
2026-05-07 06:43 57.15348 159.79155 10986 ft 186 kts 170°
2026-05-07 06:43 57.14091 159.79706 10988 ft 185 kts 161°
2026-05-07 06:44 57.12854 159.80375 10991 ft 185 kts 161°
2026-05-07 06:44 57.11642 159.81167 10994 ft 184 kts 149°
2026-05-07 06:44 57.10669 159.82660 11002 ft 182 kts 131°
2026-05-07 06:44 57.09791 159.84348 11005 ft 182 kts 131°
2026-05-07 06:45 57.08910 159.86033 11006 ft 182 kts 131°
2026-05-07 06:45 57.08038 159.87695 11008 ft 182 kts 131°
2026-05-07 06:45 57.07157 159.89380 11008 ft 183 kts 131°
2026-05-07 06:45 57.06271 159.91076 11010 ft 182 kts 131°
2026-05-07 06:46 57.05388 159.92762 11008 ft 183 kts 131°
2026-05-07 06:46 57.04514 159.94429 11014 ft 183 kts 131°
2026-05-07 06:46 57.03622 159.96120 11011 ft 184 kts 132°
2026-05-07 06:46 57.02727 159.97812 11005 ft 185 kts 132°
2026-05-07 06:47 57.01824 159.99521 11014 ft 186 kts 131°
2026-05-07 06:47 57.00921 160.01237 11009 ft 187 kts 132°
2026-05-07 06:47 57.00029 160.02935 11008 ft 187 kts 131°
2026-05-07 06:47 56.99124 160.04659 11007 ft 187 kts 131°
2026-05-07 06:48 56.98219 160.06383 11008 ft 187 kts 131°
2026-05-07 06:48 56.97312 160.08110 11004 ft 187 kts 131°
2026-05-07 06:48 56.96400 160.09845 10880 ft 189 kts 131°
2026-05-07 06:48 56.95530 160.11490 10577 ft 172 kts 131°
2026-05-07 06:49 56.94989 160.12508 10375 ft 165 kts 131°
2026-05-07 06:49 56.93943 160.14472 9981 ft 158 kts 131°
2026-05-07 06:49 56.93187 160.15880 9694 ft 155 kts 131°
2026-05-07 06:49 56.92435 160.17283 9424 ft 152 kts 131°
2026-05-07 06:50 56.91938 160.18208 9290 ft 148 kts 131°
2026-05-07 06:50 56.90992 160.19956 9018 ft 144 kts 131°
2026-05-07 06:50 56.90283 160.21248 8815 ft 142 kts 131°
2026-05-07 06:50 56.89585 160.22511 8622 ft 140 kts 131°
2026-05-07 06:51 56.88891 160.23754 8430 ft 139 kts 131°
2026-05-07 06:51 56.88199 160.24989 8228 ft 138 kts 131°
2026-05-07 06:51 56.87744 160.25798 8109 ft 138 kts 131°
2026-05-07 06:51 56.87061 160.27008 7915 ft 136 kts 131°
2026-05-07 06:52 56.86376 160.28217 7726 ft 136 kts 131°
2026-05-07 06:52 56.85692 160.29424 7538 ft 135 kts 132°
2026-05-07 06:52 56.85015 160.30613 7352 ft 135 kts 131°
2026-05-07 06:52 56.84346 160.31783 7166 ft 134 kts 132°
2026-05-07 06:53 56.83661 160.32978 6986 ft 134 kts 131°
2026-05-07 06:53 56.82986 160.34156 6810 ft 134 kts 131°
2026-05-07 06:53 56.82323 160.35315 6681 ft 131 kts 131°
2026-05-07 06:53 56.81663 160.36460 6549 ft 130 kts 132°
2026-05-07 06:54 56.81005 160.37594 6416 ft 129 kts 131°
2026-05-07 06:54 56.80364 160.38703 6285 ft 129 kts 131°
2026-05-07 06:54 56.79712 160.39833 6160 ft 128 kts 131°
2026-05-07 06:54 56.79066 160.40949 6027 ft 128 kts 131°
2026-05-07 06:55 56.78413 160.42077 5898 ft 129 kts 131°
2026-05-07 06:55 56.77761 160.43202 5760 ft 129 kts 131°
2026-05-07 06:55 56.77104 160.44339 5624 ft 130 kts 131°
2026-05-07 06:55 56.76436 160.45418 5482 ft 131 kts 140°
2026-05-07 06:56 56.75634 160.46223 5341 ft 132 kts 148°
2026-05-07 06:56 56.74805 160.46960 5204 ft 132 kts 151°
2026-05-07 06:56 56.73944 160.47553 5072 ft 132 kts 156°
2026-05-07 06:56 56.73080 160.48108 5007 ft 128 kts 155°
2026-05-07 06:57 56.72246 160.48632 4997 ft 125 kts 158°
2026-05-07 06:57 56.71404 160.48868 4994 ft 122 kts 169°
2026-05-07 06:57 56.70545 160.49013 4875 ft 128 kts 170°
2026-05-07 06:57 56.69664 160.49174 4794 ft 126 kts 169°
2026-05-07 06:58 56.68783 160.49344 4721 ft 127 kts 169°
2026-05-07 06:58 56.67909 160.49514 4643 ft 128 kts 169°
2026-05-07 06:58 56.67020 160.49687 4567 ft 128 kts 169°
2026-05-07 06:58 56.66137 160.49855 4483 ft 128 kts 169°
2026-05-07 06:59 56.65249 160.50026 4405 ft 129 kts 170°
2026-05-07 06:59 56.64353 160.50204 4329 ft 129 kts 169°
2026-05-07 06:59 56.63473 160.50376 4246 ft 129 kts 170°
2026-05-07 06:59 56.62579 160.50553 4164 ft 129 kts 169°
2026-05-07 07:00 56.61688 160.50730 4082 ft 129 kts 169°
2026-05-07 07:00 56.60794 160.50906 4011 ft 129 kts 169°
2026-05-07 07:00 56.59902 160.51079 3921 ft 129 kts 170°
2026-05-07 07:00 56.59005 160.51256 3836 ft 129 kts 169°
2026-05-07 07:01 56.58108 160.51435 3756 ft 129 kts 169°
2026-05-07 07:01 56.57210 160.51610 3670 ft 130 kts 169°
2026-05-07 07:01 56.56323 160.51786 3591 ft 129 kts 170°
2026-05-07 07:01 56.55425 160.51961 3510 ft 130 kts 170°
2026-05-07 07:02 56.54530 160.52137 3430 ft 129 kts 170°
2026-05-07 07:02 56.53637 160.52314 3355 ft 129 kts 169°
2026-05-07 07:02 56.52742 160.52490 3277 ft 129 kts 170°
2026-05-07 07:02 56.51850 160.52668 3198 ft 129 kts 169°
2026-05-07 07:03 56.50955 160.52852 3116 ft 129 kts 170°
2026-05-07 07:03 56.50059 160.53040 3034 ft 129 kts 170°
2026-05-07 07:03 56.49163 160.53225 2959 ft 129 kts 169°
2026-05-07 07:03 56.48274 160.53415 2880 ft 129 kts 170°
2026-05-07 07:04 56.47383 160.53602 2800 ft 128 kts 169°
2026-05-07 07:04 56.46493 160.53792 2715 ft 128 kts 170°
2026-05-07 07:04 56.45607 160.53983 2633 ft 128 kts 170°
2026-05-07 07:04 56.44718 160.54178 2552 ft 128 kts 170°
2026-05-07 07:05 56.43834 160.54372 2471 ft 128 kts 170°
2026-05-07 07:05 56.43011 160.54829 2398 ft 124 kts 139°
2026-05-07 07:05 56.42362 160.55823 2301 ft 123 kts 136°
2026-05-07 07:05 56.41701 160.56767 2289 ft 118 kts 136°
2026-05-07 07:06 56.41066 160.57673 2294 ft 114 kts 137°
2026-05-07 07:06 56.40449 160.58563 2293 ft 112 kts 136°
2026-05-07 07:06 56.39872 160.59382 2320 ft 95 kts 136°
2026-05-07 07:06 56.39421 160.60068 2300 ft 77 kts 126°
2026-05-07 07:07 56.39047 160.60721 2302 ft 77 kts 125°
2026-05-07 07:07 56.38632 160.61449 2310 ft 87 kts 127°
2026-05-07 07:07 56.38185 160.62245 2310 ft 91 kts 128°
2026-05-07 07:07 56.37780 160.63119 2310 ft 92 kts 122°
2026-05-07 07:08 56.37393 160.64100 2161 ft 96 kts 119°
2026-05-07 07:08 56.37034 160.65086 2049 ft 92 kts 119°
2026-05-07 07:08 56.36683 160.66025 1933 ft 90 kts 120°
2026-05-07 07:08 56.36332 160.66965 1821 ft 90 kts 122°
2026-05-07 07:09 56.35978 160.67906 1705 ft 92 kts 120°
2026-05-07 07:09 56.35631 160.68880 1525 ft 92 kts 120°
2026-05-07 07:09 56.35285 160.69825 1357 ft 92 kts 121°
2026-05-07 07:09 56.34944 160.70771 1232 ft 89 kts 121°
2026-05-07 07:10 56.34599 160.71669 1138 ft 85 kts 124°
2026-05-07 07:10 56.34244 160.72506 1068 ft 85 kts 124°
2026-05-07 07:10 56.33892 160.73351 1014 ft 85 kts 123°
2026-05-07 07:10 56.33524 160.74209 950 ft 87 kts 124°
2026-05-07 07:11 56.33160 160.75136 802 ft 93 kts 121°
2026-05-07 07:11 56.32781 160.76079 623 ft 92 kts 125°
2026-05-07 07:11 56.32386 160.77007 469 ft 95 kts 126°
2026-05-07 07:11 56.32001 160.77963 335 ft 94 kts 124°
2026-05-07 07:12 56.31613 160.78901 192 ft 92 kts 125°
2026-05-07 07:12 56.31257 160.79767 155 ft 81 kts 124°
2026-05-07 07:12 56.30956 160.80506 185 ft 52 kts 128°
2026-05-07 07:12 56.30806 160.80879 195 ft 29 kts 128°
2026-05-07 07:13 56.30840 160.81101 204 ft 18 kts 349°
2026-05-07 07:13 56.30915 160.80950 193 ft 16 kts 306°
2026-05-07 07:13 56.30983 160.80790 191 ft 16 kts 306°
2026-05-07 07:13 56.31051 160.80633 182 ft 16 kts 302°
2026-05-07 07:14 56.31064 160.80592 181 ft 0 kts 301°
2026-05-07 07:14 56.31091 160.80551 176 ft 9 kts
2026-05-07 07:14 56.31104 160.80574 176 ft 0 kts 66°
2026-05-07 07:14 56.31107 160.80585 177 ft 0 kts 69°
2026-05-07 07:15 56.31112 160.80598 177 ft 0 kts 29°